Weather History for Sierra Vista, AZ

Change the Weather History Date:

Monday, March 5, 2012

  Actual Average Record
Temperature  
Mean Temperature 60 °F -  
Max Temperature 78 °F 64 °F 78 °F (2012)
Min Temperature 42 °F 41 °F 23 °F (1985)
Degree Days  
Heating Degree Days 5    
Growing Degree Days 10 (Base 50)    
Moisture  
Dew Point 8 °F    
Average Humidity 13    
Maximum Humidity 25    
Minimum Humidity 5    
Precipitation  
Precipitation 0.00 in - - ()
Sea Level Pressure  
Sea Level Pressure 30.03 in    
Wind  
Wind Speed 4 mph (SW)    
Max Wind Speed 16 mph    
Max Gust Speed 24 mph    
Visibility 10 miles    
Events      
Averages and records for this station are not official NWS values.
T = Trace of Precipitation, MM = Missing Value Source: NWS Daily Summary

Daily Weather History Graph

Daily Weather History Graph

Search for Another Location

Airport:

Trip Planner

Search our weather history database for the weather conditions in past years. The results will help you decide how hot, cold, wet, or windy it might be!

Date:

Astronomy

Mar. 05, 2012 Rise Set
Actual Time 6:43 AM MST 6:22 PM MST
Civil Twilight 6:18 AM MST 6:47 PM MST
Nautical Twilight 5:50 AM MST 7:15 PM MST
Astronomical Twilight 5:22 AM MST 7:43 PM MST
Moon 3:52 PM MST (3/5) 4:35 AM MST (3/5)
Length of Visible Light 12h 28m
Length of Day
11h 39m
Waxing Gibbous, 91% of the Moon is Illuminated
Mar 5
Waxing Gibbous
Mar 8
Full
Mar 14
Last Quarter
Mar 22
New
Mar 30
First Quarter

Hourly Weather History & Observations

Time (MST) Temp. Windchill Dew Point Humidity Pressure Visibility Wind Dir Wind Speed Gust Speed Precip Events Conditions
12:56 AM 50.0 °F - 9.0 °F 19% 30.07 in 10.0 mi Calm Calm - N/A   Clear
1:56 AM 46.9 °F - 9.0 °F 21% 30.06 in 10.0 mi South 4.6 mph - N/A   Clear
2:56 AM 53.1 °F - 8.1 °F 16% 30.03 in 10.0 mi Calm Calm - N/A   Clear
3:56 AM 51.1 °F - 8.1 °F 18% 30.03 in 10.0 mi Calm Calm - N/A   Clear
4:56 AM 48.9 °F - 8.1 °F 19% 30.03 in 10.0 mi Calm Calm - N/A   Clear
5:55 AM 50.0 °F - 8.6 °F 19% 30.05 in 10.0 mi Calm Calm - N/A   Partly Cloudy
6:55 AM 42.8 °F 41.1 °F 8.6 °F 25% 30.10 in 10.0 mi South 3.5 mph - N/A   Mostly Cloudy
7:55 AM 57.2 °F - 10.4 °F 16% 30.08 in 10.0 mi ESE 4.6 mph - N/A   Mostly Cloudy
8:55 AM 62.6 °F - 12.2 °F 14% 30.09 in 10.0 mi ESE 9.2 mph - N/A   Mostly Cloudy
9:55 AM 66.2 °F - 10.4 °F 11% 30.10 in 10.0 mi SE 4.6 mph - N/A   Mostly Cloudy
10:55 AM 71.6 °F - 12.2 °F 10% 30.07 in 10.0 mi Variable 6.9 mph - N/A   Mostly Cloudy
11:55 AM 75.2 °F - 8.6 °F 8% 30.05 in 10.0 mi West 5.8 mph - N/A   Overcast
12:55 PM 78.8 °F - 3.2 °F 5% 30.01 in 10.0 mi West 10.4 mph 24.2 mph N/A   Overcast
1:55 PM 78.8 °F - 3.2 °F 5% 29.99 in 10.0 mi WSW 9.2 mph 18.4 mph N/A   Overcast
2:55 PM 78.8 °F - 1.4 °F 5% 29.96 in 10.0 mi West 16.1 mph 23.0 mph N/A   Overcast
3:55 PM 75.2 °F - 3.2 °F 6% 29.97 in 10.0 mi West 13.8 mph - N/A   Overcast
4:55 PM 73.4 °F - 5.0 °F 7% 29.97 in 10.0 mi WSW 11.5 mph - N/A   Overcast
5:55 PM 73.4 °F - 6.8 °F 8% 29.97 in 10.0 mi SSW 8.1 mph - N/A   Mostly Cloudy
6:55 PM 62.6 °F - 6.8 °F 11% 30.04 in 10.0 mi SW 3.5 mph - N/A   Mostly Cloudy
7:55 PM 60.8 °F - 6.8 °F 12% 30.01 in 10.0 mi WSW 3.5 mph - N/A   Mostly Cloudy
8:55 PM 60.8 °F - 8.6 °F 13% 30.01 in 10.0 mi SW 3.5 mph - N/A   Mostly Cloudy
9:55 PM 55.4 °F - 8.6 °F 15% 30.01 in 10.0 mi West 2.3 mph - N/A   Mostly Cloudy
10:55 PM 57.2 °F - 8.6 °F 14% 29.99 in 10.0 mi SW 3.5 mph - N/A   Mostly Cloudy
11:56 PM 57.9 °F - 9.0 °F 14% 29.95 in 10.0 mi West 6.9 mph - N/A   Clear